Flag for United Kingdom Weather past 2 weeks in Horsham, England, United Kingdom

Now
37 °F

Passing clouds.


Feels Like: 26 °F
Forecast: 35 / 48 °F
Wind: 25 mph from Northwest

Location: London / Gatwick Airport

Current Time: Dec 27, 2014 at 6:07:38 AM

Latest Report: Dec 27, 2014 at 5:20 AM


Visibility: N/A

Pressure: 29.62 "Hg

Humidity: 87%

Dew point: 34 °F

Location of HorshamLocation

Historic Weather in Horsham — Graph

°F

Horsham temperature yesterday

Maximum temperature yesterday: 50 °F (at 9:20 PM)
Minimum temperature yesterday: 28 °F (at 6:20 AM)
Average temperature yesterday: 38 °F

Past Weeks' High & Low Weather Summary

 TemperatureHumidityPressure
High55 °F (Dec 17, 12:50 PM)100% (Dec 12, 6:50 AM)30.51 "Hg (Dec 12, 6:50 AM)
Low25 °F (Dec 14, 4:50 AM)62% (Dec 19, 11:50 AM)29.30 "Hg (Dec 12, 5:50 AM)
Average45 °F87%30.01 "Hg
* Reported Dec 12 4:20 AM — Dec 27 4:50 AM, Horsham, Weather by CustomWeather, © 2014

Note: Actual official high and low records may vary slightly from our data, if they occured in-between our weather recording intervals... More about our weather records

Advertising

Horsham weather history for previous 24 hours

 ConditionsComfort  
Time TempWeatherWind HumidityBarometerVisibility
4:50 AM
Dec 27
37 °FPassing clouds.24 mph87%29.59 "HgN/A
4:20 AM37 °FLight rain. Passing clouds.25 mph87%29.56 "Hg6 mi
3:20 AM37 °FPassing clouds.25 mph81%29.53 "HgN/A
2:50 AM36 °FPassing clouds.24 mph87%29.53 "HgN/A
2:20 AM37 °FPassing clouds.24 mph81%29.53 "HgN/A
1:50 AM37 °FPassing clouds.25 mph87%29.53 "HgN/A
1:20 AM41 °FPassing clouds.23 mph87%29.53 "HgN/A
12:50 AM46 °FLight rain. Partly cloudy.18 mph93%29.47 "Hg4 mi
12:20 AM48 °FLight rain. Passing clouds.16 mph87%29.50 "Hg4 mi
11:50 PM
Dec 26
48 °FPartly cloudy.12 mph94%29.53 "Hg2 mi
11:20 PM48 °FLight rain. Partly cloudy.10 mph94%29.56 "Hg4 mi
10:50 PM50 °FLight rain. Passing clouds.14 mph88%29.59 "Hg5 mi
10:20 PM50 °FLight rain. Partly cloudy.14 mph94%29.62 "Hg4 mi
9:20 PM50 °FLight rain. Partly cloudy.12 mph94%29.68 "Hg6 mi
8:50 PM48 °FPassing clouds.10 mph94%29.71 "HgN/A
8:20 PM46 °FLight rain. Passing clouds.14 mph100%29.74 "HgN/A
7:50 PM45 °FRain. Mostly cloudy.13 mph93%29.80 "Hg2 mi
7:20 PM43 °FLight rain. Passing clouds.13 mph100%29.86 "Hg4 mi
6:50 PM43 °FLight rain. Mostly cloudy.10 mph93%29.92 "Hg4 mi
6:20 PM43 °FLight rain. Partly cloudy.12 mph93%29.95 "Hg5 mi
5:50 PM41 °FLight rain. Partly cloudy.9 mph93%30.01 "Hg5 mi
5:20 PM41 °FLight rain. Partly cloudy.9 mph93%30.04 "Hg5 mi
4:50 PM41 °FPartly cloudy.7 mph93%30.09 "Hg5 mi
4:20 PM39 °FLight rain. Mostly cloudy.7 mph100%30.12 "Hg4 mi
3:50 PM39 °FLight rain. Partly sunny.5 mph93%30.15 "Hg6 mi
3:20 PM41 °FLight rain. Partly sunny.6 mph87%30.18 "Hg6 mi
2:50 PM41 °FLight rain. Partly sunny.5 mph87%30.21 "HgN/A
2:20 PM41 °FSunny.2 mph87%30.24 "Hg10 mi
1:50 PM41 °FSunny.3 mph87%30.27 "Hg10 mi
1:20 PM41 °FSunny.2 mph87%30.30 "Hg10 mi
12:50 PM41 °FSunny.2 mph87%30.30 "Hg10 mi
12:20 PM39 °FClear.2 mph93%30.33 "Hg6 mi
11:50 AM37 °FSunny.No wind93%30.36 "Hg10 mi
11:20 AM36 °FClear.No wind100%30.39 "Hg5 mi
10:50 AM36 °FClear.No wind93%30.39 "Hg6 mi
10:20 AM34 °FClear.No wind100%30.42 "Hg6 mi
9:50 AM32 °FClear.No wind100%30.42 "Hg6 mi
9:20 AM32 °FClear.No wind100%30.42 "Hg6 mi
8:50 AM32 °FSunny.No wind100%30.42 "Hg10 mi
8:20 AM30 °FClear.2 mph100%30.45 "Hg6 mi
7:50 AM30 °FClear.No wind100%30.45 "Hg6 mi
7:20 AM30 °FClear.2 mph100%30.45 "Hg10 mi
6:50 AM30 °FClear.No wind93%30.45 "Hg10 mi
6:20 AM28 °FClear.No wind100%30.45 "Hg10 mi
Weather by CustomWeather, © 2014

See weather overviewHow to use our weather pages